Other Surface Observations
Issued by NWS Charleston, SC

Home | Current Version | Previous Version | Text Only | Print | Product List | Glossary On
Versions: 1 2 3 4 5 6 7 8 9 10 11 12 13 14 15 16 17 18 19 20 21 22 23 24 25 26 27 28 29 30 31 32 33 34 35 36 37 38 39 40 41 42 43 44 45 46 47 48 49 50
011
SXUS52 KCHS 231727
OSOCHS

MARINE OBSERVATIONS
NATIONAL WEATHER SERVICE CHARLESTON SC
1200 PM EST THU NOV 23 2017

...DOWNTOWN CHARLESTON AND HARBOR...

CITY           SKY/WX    TMP DP  RH WIND       PRES   REMARKS
WATERFRONT PRK NOT AVBL

...LAKE MOULTRIE...

CITY           SKY/WX    TMP DP  RH WIND       PRES   REMARKS
PINOPOLIS        N/A     48  43  81 NE7       30.01F

...LAKE AND SUPPLEMENTAL COASTAL OBSERVATIONS...

STATION/POSITION TIME  TEMP    WIND        PRES    WAVE   SWELL
                       AIR SEA DIR/SP/G            HT/PER HT/PER/DIR
                 (UTC) (F)     (DEG/KT/KT) (MB)    (FT/S) (FT/S/D)
FORT PULASKI     1700   53 62   40/  7/  9 1016.7
SAPELO ISLAND    1700   56      40/  8     1016.0
WINYAH BAY       1645   48      20/  6     1018.0F
LAKE MURRAY      1720   51      40/  3/  5 1017.9
ACE BASIN NERRS  1645   49      10/  3     1017.0F


...C-MAN AND BUOY OBSERVATIONS...

STATION/POSITION TIME  TEMP    WIND        PRES    WAVE   SWELL
                       AIR SEA DIR/SP/G            HT/PER HT/PER/DIR
                 (UTC) (F)     (DEG/KT/KT) (MB)    (FT/S) (FT/S/D)
BUOY 41004       1710   65 75   30/ 21/ 27 1014.6
BUOY 41008       1650   63 67   40/ 19/ 23 1014.8F   6/ 6   2/120/ 9
FOLLY BEACH CMAN 1700   52      20/ 12/ 15 1017.3F
CAPERS NS BUOY   1708   51 62   40/ 16/ 21 1016.3F
FRIPP NS BUOY    1708   53 62   30/ 10/ 21 1015.8F
5E ST. MARYS GA  1700      67                N/A     6/ 6


STATION/POSITION TIME  TEMP    WIND        PRES    WAVE   SWELL
                       AIR SEA DIR/SP/G            HT/PER HT/PER/DIR
                 (UTC) (F)     (DEG/KT/KT) (MB)    (FT/S) (FT/S/D)
FRYING PAN BUOY  1710   61 72   30/ 19/ 25 1016.0
BUOY 41025       1710   57 71   10/ 14/ 17 1017.9
CAPE LOOKOUT NC  1700           30/ 13/ 15 1019.0F
BUOY 41002       1650   72 76   50/ 16/ 19 1013.8F   7/ 9   5/100/ 9
BUOY 41010       NOT AVBL
ST AUGUSTINE FL  1700   66 69  360/ 16/ 17 1012.4F

$$




USA.gov is the U.S. government's official web portal to all federal, state and local government web resources and services.